FW7718 Weather Reports


Display with metric or nautical units.
time (UTC)temp
F
wind
direction
speed
MPH
gust
MPH
rain 1hr
in
rain 24hr
in
rain mn
in
humidity
%
barometer
mb
20260503194431 80 219 10.0 11.0 0.00 0.00 0.00 36 1019.8
20260503193926 80 273 6.0 7.0 0.00 0.00 0.00 37 1020.0
20260503193422 80 219 10.0 11.0 0.00 0.00 0.00 37 1020.1
20260503192918 80 210 12.0 15.0 0.00 0.00 0.00 37 1020.0
20260503192414 80 225 6.0 8.0 0.00 0.00 0.00 39 1020.1
20260503191910 80 233 6.0 8.0 0.00 0.00 0.00 42 1020.2
20260503191408 80 216 9.0 10.0 0.00 0.00 0.00 37 1020.2
20260503190904 80 222 6.0 8.0 0.00 0.00 0.00 40 1020.2
20260503190402 80 216 11.0 13.0 0.00 0.00 0.00 37 1020.4
20260503185858 80 242 9.0 10.0 0.00 0.00 0.00 37 1020.3
20260503185355 79 248 11.0 13.0 0.00 0.00 0.00 39 1020.5
20260503184854 80 253 8.0 9.0 0.00 0.00 0.00 37 1020.5
20260503184350 80 223 9.0 10.0 0.00 0.00 0.00 39 1020.8
20260503183846 79 226 12.0 14.0 0.00 0.00 0.00 37 1020.6
20260503183344 79 244 10.0 11.0 0.00 0.00 0.00 39 1020.8
20260503182841 79 225 11.0 13.0 0.00 0.00 0.00 38 1021.0
20260503182340 79 220 12.0 14.0 0.00 0.00 0.00 37 1021.0
20260503181837 79 221 8.0 9.0 0.00 0.00 0.00 39 1021.3
20260503181334 79 275 11.0 13.0 0.00 0.00 0.00 39 1021.2
20260503180830 79 221 7.0 8.0 0.00 0.00 0.00 43 1021.3
20260503180328 79 207 11.0 13.0 0.00 0.00 0.00 39 1021.2
20260503175824 79 224 9.0 11.0 0.00 0.00 0.00 40 1021.5
20260503175323 78 221 9.0 10.0 0.00 0.00 0.00 38 1021.4
20260503174818 78 201 12.0 15.0 0.00 0.00 0.00 38 1021.7
20260503174316 78 199 7.0 8.0 0.00 0.00 0.00 41 1021.7
20260503173817 78 213 7.0 7.0 0.00 0.00 0.00 40 1021.8
20260503173313 78 244 7.0 10.0 0.00 0.00 0.00 45 1022.1
20260503172810 77 201 11.0 13.0 0.00 0.00 0.00 40 1022.0
20260503172307 77 237 9.0 10.0 0.00 0.00 0.00 40 1022.0
20260503171803 77 241 11.0 14.0 0.00 0.00 0.00 43 1022.1
20260503171300 77 242 7.0 8.0 0.00 0.00 0.00 43 1022.3
20260503170757 77 217 10.0 11.0 0.00 0.00 0.00 42 1022.2
20260503170254 77 258 9.0 10.0 0.00 0.00 0.00 46 1022.4
20260503160216 74 228 10.0 13.0 0.00 0.00 0.00 49 1023.1
20260503150646 71 233 9.0 11.0 0.00 0.00 0.00 53 1022.9
20260503150142 71 228 9.0 10.0 0.00 0.00 0.00 55 1022.6
20260503140107 64 227 9.0 9.0 0.00 0.00 0.00 69 1022.7
20260503131037 58 214 3.0 3.0 0.00 0.00 0.00 80 1022.6
20260503130533 57 203 3.0 3.0 0.00 0.00 0.00 80 1022.6
20260503110424 52 199 2.0 2.0 0.00 0.00 0.00 82 1021.8
20260503090310 53 188 0.0 0.0 0.00 0.00 0.00 82 1021.3
20260503081237 54 188 0.0 0.0 0.00 0.00 0.00 80 1021.4
20260503080732 54 188 0.0 0.0 0.00 0.00 0.00 79 1021.1
20260503080230 55 188 0.0 0.0 0.00 0.00 0.00 79 1021.3
20260503072707 55 188 0.0 1.0 0.00 0.00 0.00 77 1021.5
20260503072203 55 188 1.0 1.0 0.00 0.00 0.00 77 1021.5
20260503071700 56 188 1.0 1.0 0.00 0.00 0.00 77 1021.7
20260503071157 56 188 0.0 1.0 0.00 0.00 0.00 76 1021.6
20260503070654 56 188 1.0 1.0 0.00 0.00 0.00 75 1021.6
20260503070152 56 188 1.0 1.0 0.00 0.00 0.00 75 1021.5
20260503060115 58 180 1.0 1.0 0.00 0.00 0.00 70 1021.4
20260503055107 58 180 1.0 1.0 0.00 0.00 0.00 70 1021.3
20260503054603 58 180 1.0 1.0 0.00 0.00 0.00 70 1021.3
20260503054100 58 180 1.0 1.0 0.00 0.00 0.00 70 1021.6
20260503053558 59 180 1.0 1.0 0.00 0.00 0.00 69 1021.6
20260503053055 59 179 1.0 1.0 0.00 0.00 0.00 69 1021.5
20260503052552 59 179 1.0 1.0 0.00 0.00 0.00 69 1021.5
20260503052048 59 179 1.0 1.0 0.00 0.00 0.00 70 1021.3
20260503051544 59 179 1.0 1.0 0.00 0.00 0.00 70 1021.5
20260503051042 59 179 1.0 2.0 0.00 0.00 0.00 69 1021.3
20260503050537 59 187 2.0 2.0 0.00 0.00 0.00 69 1021.1
20260503050035 59 186 1.0 2.0 0.00 0.00 0.00 68 1021.3
20260503045532 60 190 2.0 2.0 0.00 0.00 0.00 67 1021.2
20260503045030 60 189 2.0 2.0 0.00 0.00 0.00 66 1021.5
20260503044526 60 199 2.0 2.0 0.00 0.00 0.00 66 1021.4
20260503044024 60 190 2.0 2.0 0.00 0.00 0.00 66 1021.3
20260503043519 60 186 3.0 5.0 0.00 0.00 0.00 66 1021.1
20260503043016 60 167 2.0 2.0 0.00 0.00 0.00 67 1021.3
20260503042513 60 167 1.0 2.0 0.00 0.00 0.00 67 1021.2
20260503042009 60 172 2.0 2.0 0.00 0.00 0.00 67 1021.3
20260503041507 60 189 3.0 3.0 0.00 0.00 0.00 67 1021.2
20260503041005 61 167 2.0 2.0 0.00 0.00 0.00 67 1021.4
20260503040502 61 162 1.0 1.0 0.00 0.00 0.00 65 1021.3
20260503035959 61 161 1.0 1.0 0.00 0.00 0.00 64 1021.5
20260503035455 61 161 1.0 1.0 0.00 0.00 0.00 64 1021.4
20260503034953 61 161 1.0 1.0 0.00 0.00 0.00 65 1021.3
20260503034450 62 132 2.0 2.0 0.00 0.00 0.00 65 1021.3
20260503033947 62 105 1.0 1.0 0.00 0.00 0.00 64 1021.4
20260503033445 62 105 1.0 1.0 0.00 0.00 0.00 64 1021.3
20260503032943 62 106 0.0 0.0 0.00 0.00 0.00 64 1021.3
20260503032441 63 105 1.0 1.0 0.00 0.00 0.00 62 1021.1
20260503031938 63 105 1.0 1.0 0.00 0.00 0.00 60 1021.1
20260503031436 64 105 1.0 1.0 0.00 0.00 0.00 58 1021.2
20260503030932 64 105 1.0 2.0 0.00 0.00 0.00 58 1021.1
20260503030428 64 105 1.0 1.0 0.00 0.00 0.00 57 1021.2
20260503025925 64 105 1.0 1.0 0.00 0.00 0.00 58 1021.1
20260503025422 64 105 1.0 2.0 0.00 0.00 0.00 58 1021.2
20260503024920 63 105 1.0 1.0 0.00 0.00 0.00 59 1020.9
20260503024416 63 105 0.0 0.0 0.00 0.00 0.00 62 1021.0
20260503023914 63 105 0.0 0.0 0.00 0.00 0.00 61 1020.8
20260503023410 64 105 0.0 0.0 0.00 0.00 0.00 62 1021.0
20260503022907 64 105 1.0 1.0 0.00 0.00 0.00 63 1021.0
20260503022402 64 105 0.0 1.0 0.00 0.00 0.00 63 1020.7
20260503021858 64 105 1.0 1.0 0.00 0.00 0.00 62 1020.8
20260503021355 64 105 1.0 1.0 0.00 0.00 0.00 57 1020.8
20260503020852 65 105 0.0 0.0 0.00 0.00 0.00 61 1020.6
20260503020350 66 105 0.0 0.0 0.00 0.00 0.00 60 1020.6
20260503015846 66 105 1.0 1.0 0.00 0.00 0.00 52 1020.5
20260503015343 66 105 1.0 1.0 0.00 0.00 0.00 53 1020.4
20260503014839 66 105 1.0 1.0 0.00 0.00 0.00 58 1020.7
20260503014337 66 101 2.0 2.0 0.00 0.00 0.00 55 1020.4
20260503013834 65 58 0.0 0.0 0.00 0.00 0.00 59 1020.4
20260503013331 64 58 1.0 1.0 0.00 0.00 0.00 62 1020.4
20260503012828 65 57 2.0 2.0 0.00 0.00 0.00 62 1020.4
20260503012326 66 309 0.0 0.0 0.00 0.00 0.00 60 1020.3
20260503011822 66 309 0.0 0.0 0.00 0.00 0.00 59 1020.3
20260503011319 67 309 0.0 0.0 0.00 0.00 0.00 61 1020.3
20260503010816 68 309 0.0 0.0 0.00 0.00 0.00 58 1020.3
20260503010313 69 309 0.0 1.0 0.00 0.00 0.00 56 1020.0
20260503005810 70 309 0.0 0.0 0.00 0.00 0.00 44 1020.2
20260503005307 71 309 0.0 0.0 0.00 0.00 0.00 48 1020.1
20260503004803 73 309 1.0 1.0 0.00 0.00 0.00 48 1020.0
20260503004301 74 310 0.0 0.0 0.00 0.00 0.00 40 1020.0
20260503003758 74 310 0.0 0.0 0.00 0.00 0.00 39 1020.0
20260503003255 75 310 0.0 0.0 0.00 0.00 0.00 41 1020.1
20260503002752 75 325 0.0 0.0 0.00 0.00 0.00 42 1019.9
20260503002248 75 310 0.0 0.0 0.00 0.00 0.00 40 1020.0
20260503001745 75 328 0.0 0.0 0.00 0.00 0.00 39 1019.9
20260503001241 75 327 2.0 2.0 0.00 0.00 0.00 35 1020.0
20260503000740 75 310 1.0 1.0 0.00 0.00 0.00 38 1019.9
20260503000236 75 312 1.0 2.0 0.00 0.00 0.00 34 1019.9
20260502235733 75 324 1.0 2.0 0.00 0.00 0.00 39 1020.0
20260502235232 76 324 3.0 3.0 0.00 0.00 0.00 36 1020.1
20260502234727 76 296 1.0 1.0 0.00 0.00 0.00 32 1020.0
20260502234225 76 31 1.0 1.0 0.00 0.00 0.00 40 1020.0
20260502233721 75 40 0.0 0.0 0.00 0.00 0.00 36 1019.9
20260502233217 75 37 0.0 1.0 0.00 0.00 0.00 36 1020.1
20260502232713 75 318 3.0 3.0 0.00 0.00 0.00 35 1020.1
20260502232211 75 292 5.0 6.0 0.00 0.00 0.00 35 1020.2
20260502231707 75 8 5.0 7.0 0.00 0.00 0.00 36 1020.1
20260502231205 75 1 4.0 5.0 0.00 0.00 0.00 38 1020.2
20260502230704 75 32 2.0 3.0 0.00 0.00 0.00 36 1020.4
20260502230202 75 270 4.0 5.0 0.00 0.00 0.00 34 1019.9
20260502225657 76 293 4.0 5.0 0.00 0.00 0.00 34 1020.3
20260502225154 76 297 5.0 6.0 0.00 0.00 0.00 33 1020.3
20260502224650 76 329 2.0 2.0 0.00 0.00 0.00 37 1020.2
20260502224147 76 328 4.0 5.0 0.00 0.00 0.00 34 1020.3
20260502223645 76 347 4.0 6.0 0.00 0.00 0.00 35 1020.3
20260502223143 76 297 3.0 3.0 0.00 0.00 0.00 34 1020.3
20260502222640 76 291 6.0 7.0 0.00 0.00 0.00 34 1020.3
20260502222137 77 359 4.0 5.0 0.00 0.00 0.00 35 1020.2
20260502221632 77 81 1.0 1.0 0.00 0.00 0.00 34 1020.3
20260502221130 77 38 1.0 2.0 0.00 0.00 0.00 36 1020.2
20260502220626 77 265 5.0 6.0 0.00 0.00 0.00 33 1020.4
20260502220122 76 301 2.0 2.0 0.00 0.00 0.00 35 1020.4
20260502215620 76 337 3.0 5.0 0.00 0.00 0.00 37 1020.4
20260502215116 76 319 6.0 7.0 0.00 0.00 0.00 36 1020.5
20260502214613 76 12 5.0 6.0 0.00 0.00 0.00 36 1020.5
20260502214111 76 310 5.0 6.0 0.00 0.00 0.00 36 1020.4
20260502213608 75 356 3.0 5.0 0.00 0.00 0.00 40 1020.4
20260502213105 75 62 5.0 7.0 0.00 0.00 0.00 39 1020.6
20260502212604 75 343 7.0 8.0 0.00 0.00 0.00 33 1020.7
20260502212102 77 288 5.0 6.0 0.00 0.00 0.00 38 1020.6
20260502211556 77 292 3.0 5.0 0.00 0.00 0.00 35 1020.9
20260502211053 76 223 2.0 3.0 0.00 0.00 0.00 32 1020.9
20260502210551 76 277 3.0 5.0 0.00 0.00 0.00 35 1021.0
20260502210048 77 3 7.0 9.0 0.00 0.00 0.00 35 1021.1
20260502205544 77 353 1.0 2.0 0.00 0.00 0.00 34 1021.1
20260502205042 76 159 1.0 2.0 0.00 0.00 0.00 35 1021.0
20260502204538 75 325 4.0 6.0 0.00 0.00 0.00 35 1021.1
20260502204036 75 352 3.0 3.0 0.00 0.00 0.00 35 1021.2
20260502203532 76 8 6.0 8.0 0.00 0.00 0.00 33 1021.4
20260502203029 76 231 2.0 2.0 0.00 0.00 0.00 40 1021.4
20260502202525 76 254 3.0 3.0 0.00 0.00 0.00 33 1021.5
20260502202024 76 283 2.0 2.0 0.00 0.00 0.00 34 1021.6
20260502201520 75 290 5.0 6.0 0.00 0.00 0.00 33 1021.6
20260502201016 74 327 2.0 2.0 0.00 0.00 0.00 32 1021.5
20260502200512 75 292 5.0 7.0 0.00 0.00 0.00 33 1021.5
20260502200011 75 308 6.0 7.0 0.00 0.00 0.00 33 1021.8
20260502195508 75 329 5.0 7.0 0.00 0.00 0.00 37 1021.8
20260502195004 75 13 3.0 3.0 0.00 0.00 0.00 36 1021.7
20260502194501 75 45 3.0 6.0 0.00 0.00 0.00 36 1021.8